Location: Unspecified
(0.0000°N, 0.0000°E)
Time: 21:32:52
(UTC+00:00)

STARLINK-1050 - Pass Details

Date: 24 January 2020
Orbit: 548 x 551 km, 53.0° (Epoch: 29 September)

Event Time Altitude Azimuth Distance (km) Brightness Sun altitude
Exits shadow 04:19:09 - 195° (SSW) 2,343 6.9 -26.5°
Reaches altitude 10° 04:20:41 10° 188° (S) 1,780 6.4 -26.1°
Maximum altitude 04:24:19 31° 124° (SE) 946 5.4 -25.3°
Drops below altitude 10° 04:27:58 10° 60° (ENE) 1,800 6.7 -24.4°
Sets 04:30:22 0° 50° (NE) 2,694 7.5 -23.9°
